Volver al catálogo

CZ-3C DEB

LostGTO
NORAD 40868·DEBRIS·🇨🇳 China

Lanzado Feb 24, 2012 desde Xichang Satellite Launch Center

Loading…

TLE

ObsoletoSource: Space-Track

Época: Aug 21, 2025, 07:54 UTC

1 40868U 12008AJ  25233.32926772 -.00000099  00000-0  00000-0 0  9999
2 40868  22.2354 358.0661 6805188 284.9150  13.7423  2.28087707989209

Sigue CZ-3C DEB en tiempo real con AllMySat

Download on the App Store